Wind_Speed
33 34 35 35 35 34 33 32 32 31 30 28 30 31 32 32 32 31 30 29 29 28 27 27 27 27 28 29 31 31 31 30 30 31 30 30 30 30 32 33 32 30 28 26 24 23 22 21 20 19 18 17 17 16 16 15 14 13 12 11 11 11 10 9 8 8 8 7 7
34 35 35 35 34 32 31 31 32 32 32 31 30 31 32 32 32 31 30 29 28 27 26 26 26 26 27 29 30 31 30 30 30 30 29 30 30 31 33 33 31 29 27 25 24 23 22 21 19 19 18 17 16 16 15 14 13 12 11 10 11 10 10 9 8 8 8 8 7
34 35 35 34 33 32 31 31 32 33 33 33 32 30 29 30 29 29 28 27 26 26 25 26 26 26 27 29 30 30 30 30 30 29 29 30 31 32 33 32 30 28 26 25 24 23 21 20 19 18 17 17 16 16 15 13 11 10 10 10 11 10 10 9 8 8 8 8 7
34 35 35 35 35 35 34 33 34 35 35 34 31 29 27 26 26 26 26 26 26 26 26 26 26 27 27 29 30 30 30 30 29 30 30 32 32 33 32 31 29 27 26 25 23 22 21 19 18 17 17 17 16 15 13 11 10 9 10 11 11 10 10 9 8 8 8 8 7
34 35 35 36 38 38 37 36 36 36 35 33 30 28 26 25 24 24 25 26 26 27 27 28 28 27 28 30 31 31 30 30 30 31 32 33 33 32 31 30 28 27 26 24 23 22 21 20 19 18 17 16 15 13 11 10 9 10 11 11 11 10 9 8 8 8 8 8 7
35 36 36 37 39 39 37 36 36 35 33 31 29 28 28 27 26 26 26 27 28 28 27 28 28 28 29 31 32 32 32 31 32 32 33 33 32 31 30 29 28 27 26 24 23 22 21 21 20 19 18 16 14 12 10 9 10 11 12 12 11 10 9 8 8 7 7 7 7
36 36 36 36 38 37 35 34 34 33 32 31 30 30 30 30 29 28 28 28 28 27 27 27 27 29 31 32 33 32 32 32 32 33 33 33 32 31 30 29 28 26 25 24 23 23 22 21 21 20 18 16 14 12 11 11 11 12 12 11 11 9 8 8 7 7 7 7 6
36 36 36 36 36 34 32 31 31 31 31 31 31 31 31 31 30 29 28 27 27 27 26 25 27 29 32 34 33 33 33 33 33 33 33 33 32 31 30 29 27 26 25 24 23 23 22 21 21 19 18 16 14 13 12 12 12 11 11 11 10 9 8 8 8 7 6 6 6
34 34 34 34 33 31 29 29 30 31 31 31 31 31 30 30 30 29 28 27 27 26 25 25 26 29 32 33 33 33 33 33 33 33 33 33 33 32 30 28 27 26 24 23 23 22 21 21 20 18 17 16 15 14 14 12 12 11 11 10 9 9 8 8 7 7 6 6 5
32 32 32 31 30 29 28 28 29 30 30 30 30 29 29 29 29 30 29 28 27 26 24 25 27 29 31 32 32 32 33 34 34 34 34 33 33 31 29 28 26 25 24 23 22 21 21 20 19 18 16 15 15 15 14 12 12 11 10 9 9 8 8 7 7 6 6 6 6
32 31 30 30 29 28 28 28 28 28 29 29 29 29 28 29 30 30 30 28 27 25 24 25 27 29 31 31 31 32 33 34 34 34 34 33 32 30 29 27 26 24 23 22 22 21 21 20 19 18 17 15 15 14 13 12 11 10 9 9 8 8 7 7 7 7 6 6 7
31 30 29 28 28 28 28 28 28 28 28 29 29 29 29 29 30 31 31 29 27 26 25 25 27 29 30 30 31 31 33 34 34 34 33 32 31 29 28 26 25 24 23 22 22 22 21 20 19 18 17 16 15 14 13 12 11 10 9 8 8 8 7 7 7 7 7 7 7
29 28 27 27 28 29 29 28 28 28 29 29 30 30 29 30 30 31 31 31 29 27 26 26 27 29 30 30 30 31 32 34 34 33 32 30 29 28 27 26 25 24 23 22 22 22 21 19 18 18 17 16 15 14 13 11 10 9 8 7 7 7 7 7 7 7 7 8 8
27 27 28 28 29 29 29 28 28 28 29 29 29 29 30 30 30 31 32 32 31 29 28 28 27 27 28 29 30 31 32 33 32 31 30 29 29 28 27 25 24 23 22 22 22 21 19 18 17 17 16 16 15 13 12 10 8 8 7 6 6 6 6 6 7 7 8 8 8
27 28 29 29 29 29 28 28 28 28 28 29 28 29 30 30 31 31 32 32 32 30 29 28 26 26 26 28 29 30 30 30 30 30 29 28 28 27 26 25 23 23 22 22 20 19 17 16 16 15 15 15 14 12 10 9 8 7 6 6 5 6 6 6 7 8 8 8 9
28 28 29 29 29 29 28 28 27 28 28 28 28 28 29 30 30 30 30 30 30 29 28 28 26 25 25 26 28 29 29 29 29 29 29 28 27 26 25 24 24 23 22 21 19 17 16 15 15 14 14 13 12 11 10 9 8 7 6 6 6 6 7 7 7 8 8 8 9
28 28 29 29 29 28 28 27 27 27 28 28 28 29 29 29 28 27 27 27 28 28 28 28 27 26 26 27 28 28 29 30 30 30 29 28 27 26 25 25 24 23 22 20 19 17 16 15 14 13 13 12 11 11 10 9 8 7 7 7 7 7 7 7 7 7 8 8 8
28 28 28 28 28 28 27 27 26 27 28 29 29 28 28 27 26 25 25 26 27 28 29 28 27 27 27 28 29 29 29 30 30 30 29 28 27 26 26 25 24 22 20 19 18 17 16 15 14 13 13 12 12 11 11 10 9 8 8 7 7 8 8 8 8 8 7 7 7
27 27 27 28 27 27 26 26 27 28 29 29 28 27 26 26 26 25 26 26 28 28 29 28 27 28 29 29 29 29 29 30 30 30 29 28 28 27 26 24 22 20 19 18 17 17 16 15 14 14 13 13 13 12 11 10 10 9 8 8 8 8 8 8 8 8 8 7 8
26 26 27 27 27 26 26 26 27 28 28 28 27 27 26 26 26 26 27 27 28 28 28 28 28 29 29 29 29 28 29 30 30 29 29 28 28 27 25 22 20 19 18 17 17 17 16 15 15 14 14 14 13 12 11 10 9 9 8 8 8 8 8 8 8 8 8 8 8
25 25 26 26 26 26 26 26 27 28 28 27 27 27 27 26 26 27 27 28 28 28 28 29 29 29 29 29 28 28 28 29 29 29 29 28 26 25 23 21 19 19 18 17 17 17 16 15 15 14 14 13 12 10 9 9 8 8 8 8 8 8 8 8 8 8 9 9 9
25 24 24 25 25 25 26 27 28 28 27 27 27 27 26 26 26 27 27 28 28 29 29 29 30 30 29 29 28 28 29 29 29 29 28 26 24 22 21 20 19 19 18 18 17 16 16 15 14 13 12 11 10 9 8 8 7 8 8 8 8 8 8 8 9 9 10 10 10
24 24 24 24 25 26 27 27 28 28 27 27 26 26 26 26 27 28 28 29 29 29 30 29 29 29 29 29 29 29 29 29 28 27 25 24 22 21 20 20 19 19 18 17 16 15 14 13 12 11 10 9 8 7 7 7 7 7 8 8 8 9 9 9 9 10 10 10 10
23 23 24 24 25 26 27 27 27 27 27 27 27 26 26 27 28 29 29 29 29 29 29 29 29 29 29 29 29 30 29 28 27 25 24 23 22 21 21 20 19 18 17 15 14 13 12 11 10 9 8 7 6 6 6 6 6 7 8 8 9 9 9 9 10 10 10 9 9
23 23 24 24 25 26 26 26 26 26 26 27 27 27 27 28 28 29 28 28 28 28 29 29 29 29 29 29 29 29 29 28 27 26 25 23 22 22 21 19 18 16 14 13 12 11 10 9 8 8 7 6 5 5 5 6 6 7 7 8 8 9 9 10 9 9 9 8 8
23 23 24 25 25 25 25 25 26 26 26 27 27 27 27 28 28 28 27 27 27 27 28 28 28 28 28 28 28 29 28 28 28 27 26 25 23 21 19 17 15 14 12 11 10 9 8 8 7 6 5 5 4 4 4 5 6 6 7 7 8 9 9 10 9 8 8 7 6
24 24 24 25 25 25 25 25 25 25 26 26 26 26 27 27 26 26 26 26 26 27 27 27 27 27 27 28 29 30 30 29 28 27 26 24 22 20 17 16 14 13 11 10 9 8 7 5 4 4 3 3 3 4 4 5 5 6 7 8 8 9 9 9 8 7 7 6 5
24 25 25 25 25 24 24 25 25 25 25 26 26 26 26 26 26 26 26 26 26 26 26 26 26 26 28 29 30 31 30 29 28 26 24 22 20 18 16 14 13 12 11 9 8 7 6 4 2 1 2 3 4 4 5 5 6 7 7 8 8 8 8 7 7 6 6 5 5
25 25 26 25 25 24 24 24 25 25 25 25 25 25 25 26 26 26 26 26 26 26 25 25 26 27 28 29 30 30 29 27 25 23 21 20 18 16 15 14 12 11 10 9 8 7 5 3 1 1 3 4 4 4 5 6 7 7 8 8 7 7 6 5 5 5 5 5 5
24 25 25 25 25 24 24 24 25 25 25 25 25 26 26 26 26 26 26 26 26 25 26 27 28 29 30 30 29 28 26 24 22 21 20 18 17 15 14 13 12 11 10 8 7 5 3 2 1 1 3 4 4 5 6 7 7 8 7 7 6 5 5 4 4 4 5 5 5
23 24 24 24 24 24 24 24 24 25 25 25 26 26 26 26 26 26 26 26 26 26 27 28 29 30 30 29 27 25 24 23 21 20 19 17 16 15 14 13 12 11 9 7 5 4 2 2 1 1 2 4 5 6 6 7 7 7 7 6 5 4 4 3 4 4 4 4 4
22 23 23 24 24 24 24 24 24 25 26 26 26 26 26 26 26 26 26 26 26 27 28 29 29 29 28 27 25 25 24 23 21 19 18 16 15 14 13 12 11 9 8 6 4 3 2 2 1 0 2 4 5 6 7 8 7 7 5 4 3 3 3 3 3 3 3 3 3
22 23 23 23 24 24 24 24 24 25 26 26 26 26 26 26 26 26 26 27 27 28 28 29 29 28 27 26 26 25 24 22 21 19 17 15 14 12 11 10 9 8 7 6 5 4 3 2 1 0 2 4 6 7 8 8 7 5 4 2 2 2 2 2 3 3 3 4 4
23 23 23 23 24 24 24 24 24 25 25 25 25 25 26 26 26 26 27 27 28 28 28 28 28 28 27 27 27 25 24 22 19 17 15 13 12 11 10 9 8 8 8 7 6 4 3 2 1 1 3 5 7 8 8 8 6 4 2 1 1 1 2 2 3 3 4 5 5
23 23 24 23 23 24 24 24 24 24 25 25 25 25 26 27 27 27 28 28 28 28 28 28 28 27 27 27 26 24 22 20 17 15 13 12 11 10 10 9 9 9 8 7 6 4 2 1 0 2 4 6 7 8 8 7 4 2 0 0 1 1 2 3 3 4 5 6 7
23 24 24 23 23 23 23 23 24 24 24 25 25 26 26 27 27 28 29 29 29 29 29 28 28 27 26 25 23 22 19 17 15 13 12 11 10 10 10 10 10 10 8 7 5 3 2 1 0 2 4 6 7 8 7 5 3 1 1 1 1 1 2 3 4 5 6 7 8
23 24 24 24 23 23 23 24 24 24 24 25 25 26 26 27 27 28 29 29 30 29 29 28 27 26 24 22 20 18 16 15 13 12 12 11 11 11 11 11 11 10 8 6 4 3 2 1 0 2 4 6 7 7 6 4 2 0 1 0 1 2 3 4 5 6 7 8 8
24 24 25 25 24 24 24 24 24 24 24 24 25 26 26 27 27 27 27 28 29 29 28 26 25 22 20 18 17 15 14 13 13 13 12 12 11 11 10 10 9 9 7 5 4 3 2 1 0 2 4 5 6 6 5 3 1 1 1 1 2 3 4 5 6 7 8 8 8
24 25 26 26 26 26 26 25 24 24 24 24 25 25 26 26 26 26 26 26 27 26 25 23 21 19 18 17 16 16 15 14 13 12 12 11 10 8 7 7 7 7 7 5 4 3 2 2 1 2 4 5 5 5 4 3 2 2 2 2 3 4 5 7 8 9 9 9 9
25 26 26 27 27 27 26 26 25 25 25 25 25 25 25 26 26 25 25 24 23 22 21 20 19 18 18 17 17 16 16 14 13 11 10 8 7 6 5 5 5 6 6 6 5 4 3 2 2 2 3 4 4 4 4 4 3 3 4 5 5 6 7 8 9 10 10 10 10
25 25 26 26 26 26 27 27 27 26 26 26 26 26 26 25 25 24 23 22 21 20 20 19 19 18 18 17 16 15 14 13 11 9 8 6 5 4 3 3 4 6 7 7 6 4 3 2 2 2 3 3 4 4 4 4 4 5 5 6 7 8 9 10 11 11 11 11 11
Wind_Direction
190 189 189 190 191 192 193 195 198 200 201 200 195 191 190 190 191 191 190 189 189 188 188 188 187 187 188 187 186 185 185 185 187 189 190 188 187 187 189 191 190 187 185 184 183 181 178 177 178 179 180 181 182 182 182 183 183 182 179 177 179 182 185 188 193 200 206 210 212
189 189 189 189 190 190 191 193 194 197 200 201 201 197 192 191 190 191 191 190 189 188 188 187 187 187 188 188 187 185 185 185 187 189 188 187 188 189 189 188 186 185 185 185 183 180 178 177 178 179 179 181 183 182 180 180 181 180 178 179 183 185 187 190 197 204 210 212 213
188 188 187 188 187 188 189 190 192 194 196 198 200 197 194 192 191 190 190 189 188 186 185 186 186 187 187 187 186 185 185 187 188 188 187 187 189 189 187 185 184 184 186 184 181 179 177 178 179 180 181 182 184 182 178 177 178 179 181 184 187 188 189 192 199 207 212 215 217
187 186 186 187 188 189 190 191 193 194 196 197 196 194 192 191 190 188 187 187 186 185 184 185 184 185 185 185 183 183 185 188 188 187 186 187 187 186 185 184 183 183 183 181 179 178 178 179 181 182 183 184 183 181 177 174 176 183 188 190 191 190 191 193 199 206 213 216 219
187 187 187 189 190 192 193 194 194 194 194 194 191 188 187 188 186 185 185 186 185 185 185 186 183 182 183 182 181 182 184 187 186 185 185 186 185 184 183 184 183 181 180 179 178 178 179 180 181 182 183 182 181 180 178 176 181 188 193 194 193 191 191 193 199 205 211 215 219
188 188 189 191 192 193 194 194 194 193 191 189 186 184 183 184 184 184 184 184 184 184 183 185 183 181 180 179 179 180 182 184 184 184 184 184 182 181 181 182 181 180 178 178 178 179 179 179 179 179 179 179 179 178 178 182 188 192 194 193 192 191 192 194 199 205 210 213 217
189 189 190 191 192 192 192 193 192 190 187 186 184 182 182 183 183 183 183 183 181 180 180 180 180 178 177 176 177 178 180 182 182 182 183 182 181 180 180 180 180 179 178 179 179 179 179 178 178 177 177 178 177 176 179 185 191 194 194 192 191 191 192 195 201 205 209 213 219
188 189 190 191 192 192 192 191 188 185 184 184 183 182 182 183 181 181 180 179 177 176 176 177 177 177 176 175 175 177 178 179 180 181 182 182 180 179 179 179 179 179 179 179 179 178 178 178 178 177 177 178 176 177 180 185 190 193 194 191 190 191 194 198 202 207 211 218 225
186 188 189 190 190 191 191 189 186 183 180 180 181 181 180 178 178 176 175 173 174 174 173 174 176 176 175 174 174 175 176 178 178 179 180 180 178 177 177 178 178 178 178 178 178 178 177 178 179 179 179 177 176 177 180 184 188 191 192 190 189 191 195 200 205 211 218 227 236
184 185 186 186 186 187 187 186 184 181 178 176 176 176 175 173 173 172 171 169 171 171 172 174 175 174 173 173 173 174 175 177 178 177 177 177 176 176 176 177 177 176 176 176 177 178 178 179 179 179 178 177 177 178 179 183 187 188 188 187 188 191 197 204 210 219 228 237 245
182 182 181 182 182 182 180 178 177 176 174 171 172 172 172 171 171 170 168 167 167 168 170 173 172 172 172 172 172 173 174 176 176 175 174 173 174 175 176 176 176 175 175 176 177 179 181 181 179 177 176 177 179 179 180 182 184 183 182 182 186 192 198 206 215 224 234 242 249
178 178 177 177 176 175 173 170 170 169 169 168 169 170 170 170 170 169 167 166 165 167 169 171 171 171 172 172 171 172 173 174 173 172 171 171 172 173 174 175 175 175 175 176 178 181 183 181 177 174 174 176 179 182 182 182 180 176 174 177 184 192 200 208 217 227 235 243 249
173 172 171 170 170 169 168 167 165 165 166 167 167 168 168 169 170 169 167 165 166 167 168 169 171 171 172 171 170 170 170 171 171 170 169 170 171 172 173 175 175 176 176 178 181 183 183 179 175 173 174 176 180 182 182 180 176 171 170 175 182 192 200 210 220 229 237 243 250
167 167 166 166 165 164 163 163 162 163 164 165 166 166 167 168 169 169 168 166 165 165 166 167 169 171 172 171 169 168 168 168 168 167 167 168 171 173 174 175 176 176 176 178 181 181 179 176 174 174 175 177 179 181 180 179 175 173 175 180 187 196 206 216 226 234 240 246 252
162 162 162 162 160 159 159 159 160 162 162 162 163 164 164 165 167 167 166 164 164 164 164 165 167 170 171 169 168 166 165 164 164 165 166 167 171 174 175 175 175 175 176 176 177 176 174 172 173 174 176 177 178 178 178 179 178 180 184 192 201 210 219 228 235 241 247 252 258
158 158 158 157 156 156 157 158 158 160 160 159 160 161 161 162 164 164 163 162 161 161 162 164 165 166 167 166 165 163 162 162 163 164 166 168 171 174 175 174 174 174 174 172 169 168 168 170 172 175 176 176 176 177 179 183 185 189 196 205 215 223 230 236 242 249 255 260 265
155 155 155 155 157 157 157 158 158 158 158 157 158 159 159 160 160 161 162 161 160 159 161 163 164 163 162 162 162 161 160 161 163 165 166 169 171 172 172 172 173 173 171 167 164 164 166 170 173 175 176 177 178 181 185 189 192 196 204 213 221 228 234 239 244 250 256 261 267
153 154 155 157 159 159 158 158 157 156 156 156 156 157 157 157 158 160 161 160 158 158 159 161 162 161 160 159 159 159 160 161 163 165 167 168 169 169 170 171 170 169 167 165 163 164 168 171 174 176 178 180 184 187 191 194 196 201 206 213 219 226 232 237 241 247 252 257 262
153 154 155 158 159 159 158 156 155 154 154 155 155 155 155 155 156 158 158 158 157 157 157 158 159 159 159 158 157 158 159 162 163 164 165 165 166 167 168 168 166 165 163 162 163 167 172 175 177 179 183 186 190 193 194 196 198 201 206 212 219 226 232 237 242 248 253 258 261
153 154 156 158 158 158 156 154 153 152 153 153 153 153 153 154 155 155 154 153 154 155 156 156 156 157 157 156 155 155 157 160 161 161 162 163 165 167 167 166 163 160 160 161 166 172 176 179 182 185 188 191 193 194 194 196 198 202 209 216 223 230 236 242 247 252 257 260 263
153 154 156 157 156 155 153 150 150 150 150 150 150 151 151 153 153 153 152 151 152 153 154 154 154 154 153 152 152 152 154 157 158 159 160 163 166 167 167 163 159 158 160 165 171 175 178 182 186 189 192 193 193 193 194 197 203 209 216 224 230 237 243 249 254 258 261 263 265
154 153 153 153 153 151 148 146 146 146 147 147 148 149 150 150 150 150 150 150 150 151 152 152 151 150 149 149 150 150 152 154 157 159 162 164 166 166 164 160 158 160 165 171 174 178 181 185 188 190 192 193 194 195 198 203 210 217 226 233 240 247 253 258 262 265 267 268 269
150 148 146 146 145 144 143 142 143 143 144 145 146 146 147 147 148 148 148 148 149 149 149 148 148 147 148 149 150 150 152 154 157 161 163 164 163 161 160 161 163 167 170 173 176 179 183 184 187 189 191 193 195 199 206 214 222 231 239 246 251 256 261 265 268 271 272 272 271
142 140 139 139 139 140 140 140 141 141 142 143 143 144 144 144 145 145 145 145 146 146 146 145 145 146 148 150 151 153 154 156 157 159 160 160 159 160 161 165 167 169 170 172 176 180 183 184 185 188 190 193 197 205 214 226 235 243 249 255 258 262 266 269 272 274 275 274 271
134 133 134 135 137 138 139 140 140 140 141 141 141 141 141 141 142 142 142 142 143 144 145 145 146 147 149 150 152 154 156 156 156 156 156 156 158 160 162 164 165 165 166 169 174 179 182 184 185 187 189 193 200 210 223 235 244 251 257 262 266 270 273 275 277 277 277 274 269
129 130 132 134 135 137 138 138 138 138 138 138 138 138 138 139 139 139 139 138 140 142 145 145 146 147 148 149 151 152 153 153 153 153 154 154 156 157 158 157 158 159 162 166 171 176 179 182 183 185 189 197 209 225 237 248 255 262 268 274 278 281 285 287 287 286 281 274 267
128 129 131 133 134 134 135 136 135 134 134 134 134 135 135 137 136 136 135 136 138 141 143 144 144 145 146 147 148 148 149 150 151 152 152 152 152 152 152 152 154 156 158 161 164 167 170 174 180 189 201 218 237 251 262 269 275 279 283 288 290 292 294 295 296 295 290 282 272
127 128 129 131 131 131 132 132 131 131 131 132 132 133 133 133 133 133 134 135 137 138 139 140 141 142 143 144 146 146 147 148 149 149 150 149 148 147 148 150 152 153 154 155 156 156 152 150 158 214 247 255 264 274 283 290 295 297 297 298 299 299 299 299 299 300 300 297 290
127 128 128 128 129 129 129 129 129 129 129 130 130 130 131 131 131 132 133 134 135 136 137 138 139 141 142 143 145 146 146 146 146 146 145 144 144 145 147 148 148 148 149 153 155 153 148 141 139 259 272 271 282 295 304 307 308 307 306 305 305 304 302 302 303 305 309 309 308
126 126 126 127 127 127 127 127 127 128 128 128 128 129 129 129 130 131 132 133 134 135 136 138 140 140 141 142 144 143 143 142 142 141 140 140 142 144 146 146 145 147 150 155 159 160 159 155 153 263 279 285 299 312 319 319 317 314 313 312 310 308 306 307 312 317 319 320 319
123 124 124 124 124 124 125 125 126 126 127 127 127 128 128 129 130 131 133 133 134 135 137 139 140 140 140 141 141 139 138 137 137 138 139 141 143 145 147 148 150 153 157 163 168 170 169 162 159 266 285 296 311 322 326 325 323 321 319 317 315 314 314 319 326 330 332 332 332
121 121 121 121 121 122 122 123 123 124 125 125 126 127 128 129 131 132 133 134 134 135 137 139 138 138 137 137 137 137 137 138 140 142 144 145 147 150 153 156 160 162 165 168 170 169 161 149 138 256 293 305 319 327 330 331 329 327 324 322 320 324 331 339 342 346 347 349 351
118 119 119 118 118 120 120 121 121 123 124 125 126 127 128 130 131 132 134 135 136 137 138 138 137 137 136 137 138 140 142 144 146 148 150 152 154 155 158 161 164 165 165 165 163 160 154 146 140 252 300 314 323 329 332 333 333 331 328 324 331 343 354 360 4 7 6 5 3
116 116 116 115 116 118 119 120 121 122 124 125 126 128 129 130 130 132 133 135 137 138 138 138 138 138 139 141 143 145 148 150 153 155 157 158 158 158 159 160 160 161 162 161 160 160 158 144 134 294 308 318 326 330 333 335 336 334 330 336 18 26 28 24 19 14 9 3 358
115 114 114 114 115 116 118 119 121 122 123 124 125 127 129 130 131 132 133 135 136 137 137 139 140 142 143 146 148 151 154 156 159 161 161 159 157 156 158 159 159 161 163 164 167 166 158 136 138 303 311 321 326 330 333 337 338 338 329 129 84 57 39 25 15 8 1 355 350
114 114 114 114 114 115 117 119 120 122 123 124 125 127 129 131 132 134 136 138 138 138 139 142 144 146 149 152 155 158 161 163 163 161 158 155 155 158 161 163 162 162 165 171 175 173 155 127 231 306 315 323 327 331 335 339 339 322 177 136 80 39 20 11 3 359 354 349 346
115 116 116 115 115 116 118 120 121 122 123 125 127 129 130 132 133 136 139 141 141 142 144 147 150 152 155 157 160 162 163 163 160 156 155 157 162 167 169 169 168 167 168 173 177 173 154 131 228 307 315 322 328 334 340 344 335 252 188 133 34 12 360 353 350 347 345 345 345
118 119 120 120 120 120 122 123 124 124 125 127 129 131 133 134 135 138 142 144 144 146 148 152 154 156 158 158 158 158 158 158 157 158 162 167 171 174 175 176 177 177 175 171 169 164 154 144 213 300 313 323 332 340 346 351 343 300 274 322 344 349 347 345 343 343 345 347 349
123 125 126 126 126 127 127 127 127 128 129 130 131 133 135 137 139 142 145 148 149 150 151 153 154 155 154 153 154 156 159 161 164 166 167 169 171 175 181 186 189 187 182 172 168 166 162 153 192 287 309 322 333 343 352 360 4 358 350 344 345 345 346 346 348 350 353 356 359
128 130 131 131 131 131 131 131 131 132 133 134 135 137 139 141 144 146 149 150 150 150 150 150 151 151 152 154 157 161 164 166 167 165 163 162 164 170 181 192 197 193 186 177 173 172 170 161 189 262 299 316 330 342 353 4 11 12 9 2 357 354 351 352 354 356 358 360 1
131 131 132 132 133 133 133 133 135 136 138 139 141 142 144 146 147 147 148 148 148 148 148 150 152 154 156 158 160 160 160 160 160 158 156 156 158 165 174 187 196 196 193 188 185 182 177 172 191 242 285 307 324 339 352 3 10 13 10 7 2 357 353 351 351 352 353 353 353
Height
733 734 736 737 740 742 744 746 748 751 753 755 753 752 752 754 756 757 759 760 762 764 766 767 769 770 772 772 774 775 776 777 778 780 781 783 784 786 787 790 791 792 792 793 794 796 797 797 798 800 801 802 804 805 806 807 807 808 807 807 808 809 811 812 813 814 815 815 816
731 732 734 736 738 740 742 744 746 748 751 753 753 751 750 751 753 755 757 759 762 763 765 767 769 770 771 772 774 775 776 777 778 780 782 783 785 787 788 789 791 792 792 793 795 796 797 799 800 801 802 803 805 806 806 807 807 807 807 808 809 809 810 811 812 813 814 815 815
730 731 733 735 737 739 741 742 744 745 747 749 751 751 751 752 754 756 759 761 762 764 766 767 768 769 771 772 774 775 776 777 778 780 782 783 785 787 788 789 790 791 792 793 795 797 798 800 801 802 803 805 807 807 807 808 808 808 808 809 809 810 810 811 812 813 814 814 815
728 730 732 733 735 737 738 740 741 742 744 746 749 751 752 754 756 758 760 762 763 764 765 766 767 769 770 772 773 775 776 777 779 781 782 784 786 787 788 789 790 791 792 794 796 797 799 800 801 803 804 806 807 808 808 808 808 809 809 810 810 810 810 811 812 812 813 814 814
727 729 730 731 732 733 735 737 738 740 742 745 747 750 752 755 757 759 760 762 762 762 763 764 766 768 770 771 773 775 776 778 779 781 782 784 785 787 788 789 790 791 792 794 796 797 798 799 801 802 804 806 807 808 807 807 808 809 810 810 810 810 810 810 811 812 813 813 814
726 727 728 730 731 732 733 735 737 738 741 743 746 747 750 753 756 757 759 760 761 762 762 764 765 767 768 771 772 774 776 778 779 781 782 784 785 787 788 789 790 791 792 794 795 796 797 798 800 802 804 805 806 806 806 807 808 810 810 810 810 809 810 810 811 812 812 813 813
723 725 727 728 730 731 733 734 736 738 740 742 743 745 747 749 752 754 756 758 760 762 763 764 765 766 767 769 771 773 775 777 779 781 782 783 785 786 787 789 790 792 792 794 795 796 797 797 799 801 802 803 804 804 805 807 808 810 810 809 809 809 809 810 811 811 812 812 812
722 724 726 727 729 731 733 735 736 737 739 741 742 743 745 747 750 752 755 757 759 761 762 763 765 766 767 768 770 772 774 776 778 780 782 783 784 786 787 789 790 792 792 793 794 795 796 797 799 800 801 802 802 803 805 807 808 809 809 808 808 808 809 809 810 811 811 812 812
722 724 725 727 728 731 734 735 736 736 737 739 741 743 746 747 749 752 754 757 759 761 762 764 765 766 767 767 769 771 773 775 777 779 781 783 784 786 787 789 791 792 792 793 794 795 797 798 799 800 801 801 801 802 804 806 808 808 808 807 807 808 808 809 810 810 811 811 811
721 723 725 727 729 731 733 735 736 737 738 740 742 744 746 748 749 751 753 756 759 761 763 764 765 767 767 768 769 771 772 774 776 778 780 782 783 785 787 789 790 792 792 793 795 796 797 798 799 800 800 800 801 802 804 806 807 807 807 807 807 807 808 808 809 810 810 810 811
720 722 724 726 728 730 732 734 736 737 739 740 742 744 746 747 749 750 752 756 759 762 763 764 766 767 768 769 770 771 772 774 776 778 780 782 783 785 787 789 790 792 792 794 795 796 797 797 798 799 799 800 802 803 804 806 806 806 806 806 806 806 807 808 808 809 809 810 810
720 722 724 726 727 729 731 733 735 737 739 740 742 743 745 747 748 749 752 755 758 761 763 764 766 767 769 769 770 771 772 774 775 777 779 781 783 785 787 789 791 792 793 794 796 797 797 797 797 798 799 800 802 804 804 805 805 805 805 805 806 806 807 807 808 808 809 809 809
721 722 724 726 727 729 731 733 735 737 738 740 741 742 744 746 747 749 751 753 756 760 762 764 767 768 769 770 770 771 772 773 775 777 779 781 783 785 787 789 791 792 794 795 796 797 797 797 797 798 799 801 802 804 804 804 804 804 804 805 805 806 806 807 807 808 808 808 808
721 722 724 725 727 728 731 733 735 737 738 739 741 742 743 746 747 749 750 752 754 757 761 764 767 769 770 770 770 771 772 773 775 777 780 782 784 786 787 789 792 793 795 796 797 797 797 797 798 799 800 801 802 803 804 804 803 803 804 804 805 805 806 806 807 807 807 807 807
721 722 723 725 727 728 730 732 734 736 738 739 741 742 744 746 748 749 750 751 753 756 759 763 767 769 770 770 770 771 772 774 776 778 780 782 784 786 787 790 792 794 796 797 797 797 797 798 799 800 801 802 802 803 803 803 803 803 803 803 804 804 805 806 807 807 807 807 807
720 722 723 725 727 728 730 732 734 736 737 739 741 742 744 746 748 750 751 752 753 755 758 762 766 768 770 770 771 772 773 774 776 778 780 782 783 786 788 791 793 795 796 796 796 797 797 799 800 801 802 802 802 803 803 803 802 802 802 803 803 804 805 805 806 806 806 806 806
720 722 723 725 727 728 730 732 733 735 737 739 741 742 744 746 749 751 752 753 754 755 758 762 765 767 769 770 771 772 773 775 776 778 780 782 784 786 789 792 793 794 795 795 795 796 797 799 800 801 802 802 802 803 803 802 802 802 802 802 803 804 804 805 805 805 805 804 804
721 722 724 725 727 729 730 732 733 735 737 738 741 742 744 746 748 751 753 753 754 755 758 762 765 767 767 769 770 771 772 774 776 778 780 782 785 787 790 792 793 794 794 794 795 796 798 799 800 801 802 802 803 803 802 802 801 801 802 802 802 803 803 804 804 803 803 803 803
721 722 724 726 727 729 731 732 733 735 737 738 741 742 744 746 748 751 753 753 754 756 758 762 764 766 767 768 769 771 773 774 776 778 781 783 786 788 791 792 792 793 794 794 796 797 798 799 800 801 802 802 802 802 801 801 801 801 801 802 802 802 803 803 802 802 802 802 802
722 723 725 726 727 729 731 732 734 735 737 739 741 743 745 747 749 751 752 753 755 757 759 762 764 766 767 768 770 772 773 775 777 780 782 785 787 789 790 791 792 793 794 795 796 797 798 799 800 801 801 802 802 801 800 800 800 800 801 801 802 802 802 802 802 802 801 801 801
722 724 725 727 728 729 731 732 734 736 738 740 741 743 745 747 749 750 752 753 755 757 760 762 764 766 767 768 770 772 774 776 778 781 783 785 787 788 790 791 792 793 794 795 796 797 798 799 800 801 801 801 801 800 800 800 800 800 800 801 801 801 801 801 801 800 800 800 800
723 725 726 727 729 730 732 733 735 737 739 740 742 744 746 748 749 751 752 753 756 758 761 763 764 766 767 769 770 772 775 777 779 782 783 785 787 788 789 791 792 793 795 796 797 797 798 799 800 800 800 800 800 799 799 799 799 800 800 800 800 800 800 800 800 799 799 799 799
724 725 727 728 729 731 733 734 736 738 740 741 743 745 747 748 750 751 753 755 757 759 761 763 764 766 767 769 771 772 775 777 780 782 784 785 787 788 790 791 793 794 795 796 797 798 799 799 799 800 800 800 799 799 798 799 799 799 799 799 799 799 799 799 799 798 798 798 798
725 726 727 728 730 732 734 735 737 738 740 742 743 745 747 748 750 752 754 756 758 760 762 763 765 766 768 770 772 773 775 778 780 782 784 786 787 789 791 792 793 794 795 797 798 799 799 799 799 799 799 799 798 798 798 798 798 798 799 798 798 798 798 798 798 797 797 797 797
726 727 728 729 731 733 735 737 738 739 741 742 744 746 747 749 751 753 755 757 758 760 762 763 765 767 769 771 772 774 776 778 781 783 785 787 788 790 791 792 794 795 796 797 799 799 799 799 799 799 798 798 798 797 797 798 798 798 798 798 797 797 797 797 797 797 797 797 797
727 728 730 731 732 734 736 737 739 740 741 743 745 747 749 751 752 754 756 757 759 761 762 764 766 768 770 772 774 776 777 779 782 783 785 787 789 790 792 793 794 796 797 798 799 799 799 799 799 798 798 797 797 797 797 797 797 797 797 797 797 796 796 796 796 796 796 796 796
728 730 731 732 734 736 737 739 740 741 742 744 746 748 750 752 754 755 757 758 760 762 764 766 768 770 771 773 775 777 778 781 782 784 786 787 789 791 792 793 795 797 798 799 799 799 799 798 798 797 797 797 797 797 797 797 797 797 797 796 796 796 795 795 795 795 795 795 795
730 731 732 734 736 737 739 740 741 742 744 746 748 750 752 753 755 757 758 760 762 764 766 767 769 771 772 774 776 777 779 781 783 784 786 788 789 791 793 794 796 797 798 799 799 799 799 798 797 797 797 797 797 797 797 797 797 796 796 795 795 795 795 794 794 794 794 794 794
732 732 734 736 737 739 740 741 742 744 746 747 749 751 753 755 757 758 760 762 764 765 767 769 770 772 773 775 777 778 780 782 783 785 787 789 790 792 794 795 796 797 798 799 799 798 798 797 797 797 796 797 797 797 797 796 796 795 795 795 794 794 794 794 794 793 793 793 793
733 734 736 737 739 740 742 743 744 746 747 749 751 753 755 757 758 760 762 764 765 767 768 769 770 772 774 776 777 779 781 783 785 786 788 790 791 793 794 796 797 797 798 798 798 797 797 796 796 797 797 797 797 796 796 796 795 795 794 794 794 794 793 793 793 793 793 793 793
736 737 737 739 740 742 743 745 746 747 749 751 752 754 756 758 760 762 763 765 766 767 768 770 771 773 775 777 779 781 782 784 786 787 789 790 792 793 795 796 797 797 797 797 797 796 796 796 796 797 796 796 796 796 796 795 795 794 794 794 793 793 793 793 793 793 793 792 792
738 739 740 741 742 744 745 746 748 749 751 752 754 756 758 760 761 763 764 765 767 768 769 771 772 774 776 778 780 782 784 785 787 788 790 791 792 793 794 795 796 796 796 796 796 796 796 796 797 796 796 796 795 795 795 795 794 794 793 793 793 793 793 793 793 792 792 792 792
740 741 742 743 744 745 747 748 750 751 752 754 756 758 760 761 762 764 765 766 767 769 770 772 774 776 777 779 781 783 784 786 787 789 790 791 792 793 794 794 795 795 795 796 796 796 796 796 796 796 795 795 795 795 795 794 794 793 793 793 793 793 793 793 792 792 792 792 791
742 742 743 745 746 747 749 750 752 753 755 757 758 760 761 762 763 765 766 767 769 770 772 773 775 777 779 780 782 783 785 786 787 789 790 791 792 792 793 794 794 795 795 796 796 796 796 796 795 795 795 794 794 794 794 794 794 793 793 793 793 793 793 792 792 792 791 791 791
743 744 745 747 748 749 751 752 754 755 757 758 760 762 762 763 765 766 767 769 770 772 773 775 777 778 780 781 783 784 786 787 788 789 790 791 792 792 793 793 794 795 795 795 795 795 795 795 795 794 794 794 794 794 794 794 793 793 793 793 793 792 792 792 792 791 791 791 790
745 746 747 749 750 751 752 754 756 757 759 761 762 763 764 765 766 767 768 770 771 773 775 777 778 780 781 782 784 785 786 787 788 789 790 791 791 792 792 793 794 794 795 794 794 794 794 794 794 794 794 794 794 794 794 793 793 793 793 793 792 792 792 792 791 791 790 790 790
747 748 749 751 752 753 755 756 758 760 761 762 763 765 766 767 768 769 770 771 772 774 776 777 779 781 782 783 785 786 787 787 788 789 790 790 791 792 792 793 793 794 794 794 794 794 794 794 794 794 794 794 794 794 794 793 793 793 793 792 792 792 791 791 791 790 790 790 789
749 750 751 752 753 755 757 758 760 762 763 764 765 766 767 768 769 771 772 773 774 775 777 779 781 782 783 784 785 786 787 788 788 789 789 790 791 792 792 792 792 793 793 793 793 793 794 794 794 794 794 794 794 794 793 793 793 792 792 792 792 791 791 790 790 790 789 789 789
751 752 752 753 755 756 758 760 761 763 764 765 767 768 769 770 771 772 774 775 776 777 779 780 782 783 784 785 786 787 787 788 789 789 790 791 791 792 792 792 792 792 793 793 793 794 794 794 794 794 794 794 794 793 793 793 792 792 792 791 791 791 790 790 790 789 789 789 788
752 753 754 755 756 757 759 761 762 764 765 766 768 769 771 772 773 774 776 777 778 779 780 782 782 784 784 785 786 787 788 789 789 790 790 791 791 791 791 792 792 792 793 793 794 794 794 794 794 794 794 794 793 793 793 792 792 792 791 791 790 790 790 789 789 789 788 788 788
754 755 756 757 758 759 760 761 763 765 766 768 769 771 772 773 775 776 777 778 780 781 782 782 783 784 785 786 787 787 788 789 789 790 790 790 791 791 791 792 792 792 793 793 794 794 794 794 794 794 793 793 793 793 792 792 792 791 791 790 790 789 789 789 788 788 788 787 787